Regional Weather Roundup
Issued by NWS

Home | Current Version | Previous Version | Graphics & Text | Print | Product List | Glossary On
Versions: 1 2 3 4 5 6 7 8 9 10 11 12 13 14 15 16 17 18 19 20 21 22 23 24 25 26 27 28 29 30 31 32 33 34 35 36 37 38 39 40 41 42 43 44 45 46 47 48 49 50
000
ASUS43 KIND 302359
RWRIN

WEATHER ROUNDUP FOR INDIANA
NATIONAL WEATHER SERVICE INDIANAPOLIS IN
800 PM EDT TUE JUN 30 2015

NOTE: "FAIR" INDICATES FEW OR NO CLOUDS BELOW 12,000 FEET WITH NO
SIGNIFICANT WEATHER AND/OR OBSTRUCTIONS TO VISIBILITY.

* - STATION DOES NOT REPORT WEATHER SUCH AS PRECIPITATION OR FOG.

+ - STATION NOT QUALITY CONTROLLED BY THE NATIONAL WEATHER SERVICE.
    USE DATA WITH CAUTION...ESPECIALLY DEWPOINT AND RELATIVE
    HUMIDITY OBSERVATIONS.

INZ001>003-010>013-019-020-010100-
NORTHWEST INDIANA

CITY           SKY/WX    TMP DP  RH WIND       PRES   REMARKS
GARY /AIRPORT/ CLOUDY   N/A N/A N/A N9        29.87R FOG
RENSSELAER +   SUNNY     72  63  73 N7        29.83R

$$

LMZ046-743>745-010100-
SOUTHERN LAKE MICHIGAN

STATION/POSITION TIME  TEMP    WIND        PRES    WAVE
                       AIR SEA DIR/SP/G            HT
                 (UTC) (F)     (DEG/KT/KT) (MB)    (FT)
BURNS HARBOR     2300   63      30/ 11/ 15 1011.5R
MICHIGAN CITY    2300   63     360/ 11/ 13   N/A
5NW MICH CITY    2300   61 65   30/ 12/ 16   N/A     2

$$

INZ004-005-014>016-021>024-010100-
NORTH CENTRAL INDIANA

CITY           SKY/WX    TMP DP  RH WIND       PRES   REMARKS
ELKHART        SUNNY     68  59  73 NW9       29.83R
GOSHEN         MOSUNNY   69  59  70 NW14      29.82R
6HR MIN TEMP:  69; 6HR MAX TEMP:  76;

SOUTH BEND     SUNNY     68  59  73 NW14      29.84R
6HR MIN TEMP:  68; 6HR MAX TEMP:  74;


$$

INZ006>009-017-018-025>027-010100-
NORTHEAST INDIANA

CITY           SKY/WX    TMP DP  RH WIND       PRES   REMARKS
ANGOLA *+      MOSUNNY   72  64  78 W10       29.79R
FORT WAYNE     MOSUNNY   72  59  63 NW15      29.81R
6HR MIN TEMP:  72; 6HR MAX TEMP:  79;


$$

INZ028-029-035-036-043>045-051>053-010100-
WEST CENTRAL INDIANA

CITY           SKY/WX    TMP DP  RH WIND       PRES   REMARKS
CRAWFORDSVL +  MOSUNNY   74  60  60 NW6       29.82R
6HR MIN TEMP:  74; 6HR MAX TEMP:  79;

GREENCASTLE +  MOSUNNY   77  63  61 W5        29.83R
LAFAYETTE      SUNNY     75  61  61 NW8       29.81R
6HR MIN TEMP:  75; 6HR MAX TEMP:  80;

TERRE HAUTE    MOSUNNY   75  64  68 W6        29.82R
6HR MIN TEMP:  72; 6HR MAX TEMP:  83; 6HR PCP:  0.01;


$$

INZ030>032-037>040-046>048-054>057-064-065-010100-
CENTRAL INDIANA

CITY           SKY/WX    TMP DP  RH WIND       PRES   REMARKS
COLUMBUS       SUNNY     79  64  61 W8        29.82R
GREENWOOD *+   CLOUDY    75  63  64 CALM      29.82
INDIANAPOLIS   MOSUNNY   79  61  53 NW12      29.81R
6HR MIN TEMP:  79; 6HR MAX TEMP:  82; 6HR PCP: TRACE;

-EAGLE CREEK   SUNNY     78  64  61 NW10      29.81R
6HR MIN TEMP:  77; 6HR MAX TEMP:  81; 6HR PCP: TRACE;

KOKOMO *+      MOSUNNY   75  63  64 N13       29.80R
6HR MIN TEMP:  75; 6HR MAX TEMP:  81;

MT COMFORT *+  MOSUNNY   77  54  44 NW10      29.82R
SHELBYVILLE    TSTM      74  65  73 W8        29.81R
6HR MIN TEMP:  69; 6HR MAX TEMP:  83; 6HR PCP:  0.17;


$$

INZ033-034-041-042-049-050-058-059-010100-
EAST CENTRAL INDIANA

CITY           SKY/WX    TMP DP  RH WIND       PRES   REMARKS
MUNCIE         SUNNY     76  63  64 NW7       29.81R
6HR MIN TEMP:  75; 6HR MAX TEMP:  79;


$$

INZ060-061-067>069-081>083-085>088-010100-
SOUTHWEST INDIANA

CITY           SKY/WX    TMP DP  RH WIND       PRES   REMARKS
EVANSVILLE     SUNNY     80  67  64 W7        29.85R
6HR MIN TEMP:  80; 6HR MAX TEMP:  84;

HUNTINGBURG *+ MOSUNNY   79  66  65 W9        29.84R

$$

INZ062-063-066-070>080-084-089>092-010100-
SOUTH CENTRAL AND SOUTHEAST INDIANA

CITY           SKY/WX    TMP DP  RH WIND       PRES   REMARKS
BLOOMINGTON    MOSUNNY   67  64  90 W6        29.84F
6HR MIN TEMP:  66; 6HR MAX TEMP:  81; 6HR PCP:  0.28;

MADISON *+     CLOUDY    72  63  73 SE6       29.87R
SEYMOUR +      MOSUNNY   75  68  78 S7        29.82R

$$




USA.gov is the U.S. government's official web portal to all federal, state and local government web resources and services.